Time,TemperatureF,DewpointF,PressureIn,WindDirection,WindDirectionDegrees,WindSpeedMPH,WindSpeedGustMPH,Humidity,HourlyPrecipIn,Conditions,Clouds,dailyrainin,SolarRadiationWatts/m^2,SoftwareType,DateUTC
2013-07-04 00:02:00,91.0,55.3,29.64,SE,145,8.0,0.0,30,0.00,,,0.00,0,WeatherHawk,2013-07-04 07:02:00,
2013-07-04 00:03:00,91.0,55.3,29.64,SE,145,8.0,0.0,30,0.00,,,0.00,0,WeatherHawk,2013-07-04 07:03:00,
2013-07-04 00:08:00,90.7,54.9,29.64,SE,144,9.0,0.0,30,0.00,,,0.00,0,WeatherHawk,2013-07-04 07:08:00,
2013-07-04 00:10:00,90.7,55.8,29.64,SSE,151,7.0,0.0,31,0.00,,,0.00,0,WeatherHawk,2013-07-04 07:10:00,
2013-07-04 00:12:00,90.7,55.8,29.64,SSE,163,8.0,0.0,31,0.00,,,0.00,0,WeatherHawk,2013-07-04 07:12:00,
2013-07-04 00:13:00,90.7,55.8,29.64,SSE,163,8.0,-999.0,31,0.00,,,0.00,0,WeatherHawk,2013-07-04 07:13:00,
2013-07-04 00:15:00,90.7,56.7,29.64,SSE,156,8.0,0.0,32,0.00,,,0.00,0,WeatherHawk,2013-07-04 07:15:00,
2013-07-04 00:18:00,90.7,56.7,29.64,SSE,156,8.0,0.0,32,0.00,,,0.00,0,WeatherHawk,2013-07-04 07:18:00,
2013-07-04 00:19:00,90.7,57.6,29.64,SSE,155,10.0,0.0,33,0.00,,,0.00,0,WeatherHawk,2013-07-04 07:19:00,
2013-07-04 00:21:00,90.7,57.6,29.64,SSE,151,9.0,0.0,33,0.00,,,0.00,0,WeatherHawk,2013-07-04 07:21:00,
2013-07-04 00:23:00,90.7,57.6,29.64,SSE,153,9.0,-999.0,33,0.00,,,0.00,0,WeatherHawk,2013-07-04 07:23:00,
2013-07-04 00:26:00,90.5,57.4,29.64,SE,144,11.0,0.0,33,0.00,,,0.00,0,WeatherHawk,2013-07-04 07:26:00,
2013-07-04 00:27:00,90.5,58.3,29.64,SE,142,12.0,0.0,34,0.00,,,0.00,1,WeatherHawk,2013-07-04 07:27:00,
2013-07-04 00:28:00,90.5,58.3,29.64,SE,138,11.0,0.0,34,0.00,,,0.00,0,WeatherHawk,2013-07-04 07:28:00,
2013-07-04 00:33:00,90.3,58.1,29.64,SE,145,12.0,0.0,34,0.00,,,0.00,0,WeatherHawk,2013-07-04 07:33:00,
2013-07-04 00:34:00,90.1,58.7,29.65,SE,140,11.0,0.0,35,0.00,,,0.00,2,WeatherHawk,2013-07-04 07:34:00,
2013-07-04 00:37:00,90.0,59.4,19.83,SE,136,8.0,0.0,36,0.00,,,0.00,0,WeatherHawk,2013-07-04 07:37:00,
2013-07-04 00:38:00,90.0,59.4,19.83,SE,136,8.0,0.0,36,0.00,,,0.00,0,WeatherHawk,2013-07-04 07:38:00,
2013-07-04 00:41:00,89.6,60.6,29.64,SE,140,11.0,0.0,38,0.00,,,0.00,0,WeatherHawk,2013-07-04 07:41:00,
2013-07-04 00:43:00,89.6,60.6,29.64,SE,140,11.0,0.0,38,0.00,,,0.00,0,WeatherHawk,2013-07-04 07:43:00,
2013-07-04 00:46:00,88.9,61.4,29.64,SE,133,10.0,0.0,40,0.00,,,0.00,0,WeatherHawk,2013-07-04 07:46:00,
2013-07-04 00:48:00,88.9,61.4,29.64,SE,133,10.0,0.0,40,0.00,,,0.00,0,WeatherHawk,2013-07-04 07:48:00,
2013-07-04 00:52:00,88.3,63.0,29.64,SE,142,11.0,0.0,43,0.00,,,0.00,0,WeatherHawk,2013-07-04 07:52:00,
2013-07-04 00:53:00,88.3,63.0,29.64,SE,142,11.0,0.0,43,0.00,,,0.00,0,WeatherHawk,2013-07-04 07:53:00,
2013-07-04 00:58:00,88.2,63.5,29.65,SE,130,12.0,0.0,44,0.00,,,0.00,0,WeatherHawk,2013-07-04 07:58:00,
2013-07-04 00:59:00,88.2,63.5,29.65,SE,135,10.0,0.0,44,0.00,,,0.00,0,WeatherHawk,2013-07-04 07:59:00,
2013-07-04 01:01:00,88.2,63.5,29.65,SE,139,12.0,0.0,44,0.00,,,0.00,0,WeatherHawk,2013-07-04 08:01:00,
2013-07-04 01:03:00,88.2,63.5,29.65,SE,139,12.0,0.0,44,0.00,,,0.00,0,WeatherHawk,2013-07-04 08:03:00,
2013-07-04 01:08:00,88.2,64.1,29.65,SE,135,10.0,-999.0,45,0.00,,,0.00,0,WeatherHawk,2013-07-04 08:08:00,
2013-07-04 01:11:00,88.2,64.1,29.65,SE,146,11.0,0.0,45,0.00,,,0.00,0,WeatherHawk,2013-07-04 08:11:00,
2013-07-04 01:17:00,88.2,64.1,29.65,SE,140,8.0,0.0,45,0.00,,,0.00,0,WeatherHawk,2013-07-04 08:17:00,
2013-07-04 01:18:00,88.2,64.1,29.65,SE,140,8.0,0.0,45,0.00,,,0.00,0,WeatherHawk,2013-07-04 08:18:00,
2013-07-04 01:20:00,88.3,63.6,29.64,SE,137,10.0,0.0,44,0.00,,,0.00,0,WeatherHawk,2013-07-04 08:20:00,
2013-07-04 01:23:00,88.3,63.6,29.65,SE,146,7.0,0.0,44,0.00,,,0.00,0,WeatherHawk,2013-07-04 08:23:00,
2013-07-04 01:28:00,88.2,63.5,29.64,SE,144,8.0,-999.0,44,0.00,,,0.00,0,WeatherHawk,2013-07-04 08:28:00,
2013-07-04 01:31:00,88.2,62.8,29.64,SSE,157,11.0,0.0,43,0.00,,,0.00,0,WeatherHawk,2013-07-04 08:31:00,
2013-07-04 01:34:00,88.2,62.8,29.64,SSE,147,9.0,0.0,43,0.00,,,0.00,0,WeatherHawk,2013-07-04 08:34:00,
2013-07-04 01:36:00,88.2,62.8,29.64,SSE,148,10.0,0.0,43,0.00,,,0.00,0,WeatherHawk,2013-07-04 08:36:00,
2013-07-04 01:38:00,88.2,62.8,29.64,SSE,148,10.0,0.0,43,0.00,,,0.00,0,WeatherHawk,2013-07-04 08:38:00,
2013-07-04 01:40:00,88.2,62.8,29.64,SE,141,10.0,0.0,43,0.00,,,0.00,0,WeatherHawk,2013-07-04 08:40:00,
2013-07-04 01:42:00,88.2,62.8,29.64,SSE,148,10.0,0.0,43,0.00,,,0.00,0,WeatherHawk,2013-07-04 08:42:00,
2013-07-04 01:43:00,88.2,62.8,29.64,SSE,148,10.0,-999.0,43,0.00,,,0.00,0,WeatherHawk,2013-07-04 08:43:00,
2013-07-04 01:47:00,88.0,62.6,29.64,SE,140,9.0,0.0,43,0.00,,,0.00,0,WeatherHawk,2013-07-04 08:47:00,
2013-07-04 01:48:00,88.0,62.6,29.64,SE,140,9.0,-999.0,43,0.00,,,0.00,0,WeatherHawk,2013-07-04 08:48:00,
2013-07-04 01:51:00,87.8,62.5,29.64,SE,138,11.0,0.0,43,0.00,,,0.00,0,WeatherHawk,2013-07-04 08:51:00,
2013-07-04 01:52:00,87.6,62.3,29.64,SE,137,11.0,0.0,43,0.00,,,0.00,0,WeatherHawk,2013-07-04 08:52:00,
2013-07-04 01:53:00,87.6,62.3,29.64,SE,137,11.0,-999.0,43,0.00,,,0.00,0,WeatherHawk,2013-07-04 08:53:00,
2013-07-04 01:54:00,87.4,62.2,29.64,SE,140,10.0,0.0,43,0.00,,,0.00,0,WeatherHawk,2013-07-04 08:54:00,
2013-07-04 01:57:00,87.3,62.0,29.64,SE,146,13.0,0.0,43,0.00,,,0.00,0,WeatherHawk,2013-07-04 08:57:00,
2013-07-04 01:58:00,87.3,62.0,29.64,SE,142,9.0,0.0,43,0.00,,,0.00,0,WeatherHawk,2013-07-04 08:58:00,
2013-07-04 02:02:00,87.1,61.8,29.64,SE,145,9.0,0.0,43,0.00,,,0.00,0,WeatherHawk,2013-07-04 09:02:00,
2013-07-04 02:05:00,87.1,61.8,29.64,SSE,148,9.0,0.0,43,0.00,,,0.00,0,WeatherHawk,2013-07-04 09:05:00,
2013-07-04 02:06:00,87.1,61.8,29.64,SE,139,9.0,0.0,43,0.00,,,0.00,0,WeatherHawk,2013-07-04 09:06:00,
2013-07-04 02:08:00,87.1,61.8,29.64,SE,143,9.0,0.0,43,0.00,,,0.00,0,WeatherHawk,2013-07-04 09:08:00,
2013-07-04 02:09:00,87.1,61.2,29.64,SE,146,9.0,0.0,42,0.00,,,0.00,0,WeatherHawk,2013-07-04 09:09:00,
2013-07-04 02:10:00,86.9,61.0,29.64,SE,144,9.0,0.0,42,0.00,,,0.00,0,WeatherHawk,2013-07-04 09:10:00,
2013-07-04 02:12:00,86.9,61.0,29.64,SSE,147,11.0,0.0,42,0.00,,,0.00,0,WeatherHawk,2013-07-04 09:12:00,
2013-07-04 02:16:00,87.1,60.5,29.63,SE,142,15.0,0.0,41,0.00,,,0.00,0,WeatherHawk,2013-07-04 09:16:00,
2013-07-04 02:17:00,87.4,60.8,29.63,SE,145,11.0,0.0,41,0.00,,,0.00,0,WeatherHawk,2013-07-04 09:17:00,
2013-07-04 02:22:00,87.3,60.6,29.64,SE,141,11.0,-999.0,41,0.00,,,0.00,0,WeatherHawk,2013-07-04 09:22:00,
2013-07-04 02:24:00,87.1,60.5,29.64,SE,140,8.0,0.0,41,0.00,,,0.00,0,WeatherHawk,2013-07-04 09:24:00,
2013-07-04 02:27:00,86.9,60.3,29.64,SE,142,9.0,0.0,41,0.00,,,0.00,0,WeatherHawk,2013-07-04 09:27:00,
2013-07-04 02:32:00,86.9,60.3,29.63,SE,141,10.0,0.0,41,0.00,,,0.00,0,WeatherHawk,2013-07-04 09:32:00,
2013-07-04 02:34:00,86.7,60.2,29.64,SE,142,11.0,0.0,41,0.00,,,0.00,0,WeatherHawk,2013-07-04 09:34:00,
2013-07-04 02:36:00,86.7,60.2,29.64,SE,140,8.0,0.0,41,0.00,,,0.00,0,WeatherHawk,2013-07-04 09:36:00,
2013-07-04 02:37:00,86.7,60.2,29.64,SE,140,8.0,0.0,41,0.00,,,0.00,0,WeatherHawk,2013-07-04 09:37:00,
2013-07-04 02:39:00,86.7,60.2,29.64,SE,137,8.0,0.0,41,0.00,,,0.00,0,WeatherHawk,2013-07-04 09:39:00,
2013-07-04 02:41:00,86.7,60.2,29.64,SE,131,9.0,0.0,41,0.00,,,0.00,0,WeatherHawk,2013-07-04 09:41:00,
2013-07-04 02:47:00,86.4,59.8,29.63,SE,130,9.0,0.0,41,0.00,,,0.00,0,WeatherHawk,2013-07-04 09:47:00,
2013-07-04 02:52:00,85.6,60.5,29.63,SE,143,11.0,0.0,43,0.00,,,0.00,0,WeatherHawk,2013-07-04 09:52:00,
2013-07-04 02:55:00,85.5,61.0,29.63,SE,138,9.0,0.0,44,0.00,,,0.00,0,WeatherHawk,2013-07-04 09:55:00,
2013-07-04 02:57:00,85.5,61.0,29.63,SE,134,9.0,0.0,44,0.00,,,0.00,0,WeatherHawk,2013-07-04 09:57:00,
2013-07-04 02:59:00,85.1,61.3,29.63,SE,129,9.0,0.0,45,0.00,,,0.00,0,WeatherHawk,2013-07-04 09:59:00,
2013-07-04 03:00:00,85.1,62.0,29.63,SE,128,9.0,0.0,46,0.00,,,0.00,0,WeatherHawk,2013-07-04 10:00:00,
2013-07-04 03:02:00,85.1,62.0,29.63,SE,128,9.0,-999.0,46,0.00,,,0.00,0,WeatherHawk,2013-07-04 10:02:00,
2013-07-04 03:04:00,85.1,62.0,29.63,ESE,123,9.0,0.0,46,0.00,,,0.00,0,WeatherHawk,2013-07-04 10:04:00,
2013-07-04 03:06:00,85.1,62.0,29.63,SE,127,10.0,0.0,46,0.00,,,0.00,0,WeatherHawk,2013-07-04 10:06:00,
2013-07-04 03:07:00,85.1,62.0,29.63,SE,127,10.0,-999.0,46,0.00,,,0.00,0,WeatherHawk,2013-07-04 10:07:00,
2013-07-04 03:08:00,85.1,62.6,29.63,SE,133,9.0,0.0,47,0.00,,,0.00,0,WeatherHawk,2013-07-04 10:08:00,
2013-07-04 03:12:00,85.1,62.6,29.63,SE,133,9.0,0.0,47,0.00,,,0.00,0,WeatherHawk,2013-07-04 10:12:00,
2013-07-04 03:17:00,85.1,62.6,29.63,SE,133,9.0,0.0,47,0.00,,,0.00,0,WeatherHawk,2013-07-04 10:17:00,
2013-07-04 03:22:00,85.1,62.6,29.63,SE,133,9.0,0.0,47,0.00,,,0.00,0,WeatherHawk,2013-07-04 10:22:00,
2013-07-04 03:27:00,85.1,62.6,29.63,SE,133,9.0,0.0,47,0.00,,,0.00,0,WeatherHawk,2013-07-04 10:27:00,
2013-07-04 03:33:00,85.1,62.6,29.63,SE,133,9.0,0.0,47,0.00,,,0.00,0,WeatherHawk,2013-07-04 10:33:00,
2013-07-04 03:38:00,85.1,62.6,29.63,SE,133,9.0,0.0,47,0.00,,,0.00,0,WeatherHawk,2013-07-04 10:38:00,
2013-07-04 03:43:00,85.1,62.6,29.63,SE,133,9.0,0.0,47,0.00,,,0.00,0,WeatherHawk,2013-07-04 10:43:00,
2013-07-04 03:48:00,85.1,62.6,29.63,SE,133,9.0,0.0,47,0.00,,,0.00,0,WeatherHawk,2013-07-04 10:48:00,
2013-07-04 03:53:00,85.1,62.6,29.63,SE,133,9.0,0.0,47,0.00,,,0.00,0,WeatherHawk,2013-07-04 10:53:00,
2013-07-04 03:58:00,85.1,62.6,29.63,SE,133,9.0,0.0,47,0.00,,,0.00,0,WeatherHawk,2013-07-04 10:58:00,
2013-07-04 04:03:00,85.1,62.6,29.63,SE,133,9.0,0.0,47,0.00,,,0.00,0,WeatherHawk,2013-07-04 11:03:00,
2013-07-04 04:08:00,85.1,62.6,29.63,SE,133,9.0,0.0,47,0.00,,,0.00,0,WeatherHawk,2013-07-04 11:08:00,
2013-07-04 04:13:00,85.1,62.6,29.63,SE,133,9.0,0.0,47,0.00,,,0.00,0,WeatherHawk,2013-07-04 11:13:00,
2013-07-04 04:18:00,85.1,62.6,29.63,SE,133,9.0,0.0,47,0.00,,,0.00,0,WeatherHawk,2013-07-04 11:18:00,
2013-07-04 04:23:00,85.1,62.6,29.63,SE,133,9.0,0.0,47,0.00,,,0.00,0,WeatherHawk,2013-07-04 11:23:00,
2013-07-04 04:28:00,85.1,62.6,29.63,SE,133,9.0,0.0,47,0.00,,,0.00,0,WeatherHawk,2013-07-04 11:28:00,
2013-07-04 04:33:00,85.1,62.6,29.63,SE,133,9.0,0.0,47,0.00,,,0.00,0,WeatherHawk,2013-07-04 11:33:00,
2013-07-04 04:38:00,85.1,62.6,29.63,SE,133,9.0,0.0,47,0.00,,,0.00,0,WeatherHawk,2013-07-04 11:38:00,
2013-07-04 04:43:00,85.1,62.6,29.63,SE,133,9.0,0.0,47,0.00,,,0.00,0,WeatherHawk,2013-07-04 11:43:00,
2013-07-04 04:48:00,85.1,62.6,29.63,SE,133,9.0,0.0,47,0.00,,,0.00,0,WeatherHawk,2013-07-04 11:48:00,
2013-07-04 04:53:00,85.1,62.6,29.63,SE,133,9.0,0.0,47,0.00,,,0.00,0,WeatherHawk,2013-07-04 11:53:00,
2013-07-04 04:58:00,85.1,62.6,29.63,SE,133,9.0,0.0,47,0.00,,,0.00,0,WeatherHawk,2013-07-04 11:58:00,
2013-07-04 05:03:00,85.1,62.6,29.63,SE,133,9.0,0.0,47,0.00,,,0.00,0,WeatherHawk,2013-07-04 12:03:00,
2013-07-04 05:08:00,85.1,62.6,29.63,SE,133,9.0,0.0,47,0.00,,,0.00,0,WeatherHawk,2013-07-04 12:08:00,
2013-07-04 05:13:00,85.1,62.6,29.63,SE,133,9.0,0.0,47,0.00,,,0.00,0,WeatherHawk,2013-07-04 12:13:00,
2013-07-04 05:18:00,85.1,62.6,29.63,SE,133,9.0,0.0,47,0.00,,,0.00,0,WeatherHawk,2013-07-04 12:18:00,
2013-07-04 05:23:00,85.1,62.6,29.63,SE,133,9.0,0.0,47,0.00,,,0.00,0,WeatherHawk,2013-07-04 12:23:00,
2013-07-04 05:28:00,85.1,62.6,29.63,SE,133,9.0,0.0,47,0.00,,,0.00,0,WeatherHawk,2013-07-04 12:28:00,
2013-07-04 05:33:00,85.1,62.6,29.63,SE,133,9.0,0.0,47,0.00,,,0.00,0,WeatherHawk,2013-07-04 12:33:00,
2013-07-04 05:38:00,85.1,62.6,29.63,SE,133,9.0,0.0,47,0.00,,,0.00,0,WeatherHawk,2013-07-04 12:38:00,
2013-07-04 05:43:00,85.1,62.6,29.63,SE,133,9.0,0.0,47,0.00,,,0.00,0,WeatherHawk,2013-07-04 12:43:00,
2013-07-04 05:48:00,85.1,62.6,29.63,SE,133,9.0,0.0,47,0.00,,,0.00,0,WeatherHawk,2013-07-04 12:48:00,
2013-07-04 05:53:00,85.1,62.6,29.63,SE,133,9.0,0.0,47,0.00,,,0.00,0,WeatherHawk,2013-07-04 12:53:00,
2013-07-04 05:58:00,85.1,62.6,29.63,SE,133,9.0,0.0,47,0.00,,,0.00,0,WeatherHawk,2013-07-04 12:58:00,
2013-07-04 06:03:00,85.1,62.6,29.63,SE,133,9.0,0.0,47,0.00,,,0.00,0,WeatherHawk,2013-07-04 13:03:00,
2013-07-04 06:08:00,85.1,62.6,29.63,SE,133,9.0,0.0,47,0.00,,,0.00,0,WeatherHawk,2013-07-04 13:08:00,
2013-07-04 06:13:00,85.1,62.6,29.63,SE,133,9.0,0.0,47,0.00,,,0.00,0,WeatherHawk,2013-07-04 13:13:00,
2013-07-04 06:18:00,85.1,62.6,29.63,SE,133,9.0,0.0,47,0.00,,,0.00,0,WeatherHawk,2013-07-04 13:18:00,
2013-07-04 06:23:00,85.1,62.6,29.63,SE,133,9.0,0.0,47,0.00,,,0.00,0,WeatherHawk,2013-07-04 13:23:00,
2013-07-04 06:28:00,85.1,62.6,29.63,SE,133,9.0,0.0,47,0.00,,,0.00,0,WeatherHawk,2013-07-04 13:28:00,
2013-07-04 06:33:00,85.1,62.6,29.63,SE,133,9.0,0.0,47,0.00,,,0.00,0,WeatherHawk,2013-07-04 13:33:00,
2013-07-04 06:38:00,85.1,62.6,29.63,SE,133,9.0,0.0,47,0.00,,,0.00,0,WeatherHawk,2013-07-04 13:38:00,
2013-07-04 06:43:00,85.1,62.6,29.63,SE,133,9.0,0.0,47,0.00,,,0.00,0,WeatherHawk,2013-07-04 13:43:00,
2013-07-04 06:48:00,85.1,62.6,29.63,SE,133,9.0,0.0,47,0.00,,,0.00,0,WeatherHawk,2013-07-04 13:48:00,
2013-07-04 06:53:00,85.1,62.6,29.63,SE,133,9.0,0.0,47,0.00,,,0.00,0,WeatherHawk,2013-07-04 13:53:00,
2013-07-04 06:58:00,85.1,62.6,29.63,SE,133,9.0,0.0,47,0.00,,,0.00,0,WeatherHawk,2013-07-04 13:58:00,
2013-07-04 07:03:00,85.1,62.6,29.63,SE,133,9.0,0.0,47,0.00,,,0.00,0,WeatherHawk,2013-07-04 14:03:00,
2013-07-04 07:08:00,85.1,62.6,29.63,SE,133,9.0,0.0,47,0.00,,,0.00,0,WeatherHawk,2013-07-04 14:08:00,
2013-07-04 07:13:00,85.1,62.6,29.63,SE,133,9.0,0.0,47,0.00,,,0.00,0,WeatherHawk,2013-07-04 14:13:00,
2013-07-04 07:18:00,85.1,62.6,29.63,SE,133,9.0,0.0,47,0.00,,,0.00,0,WeatherHawk,2013-07-04 14:18:00,
2013-07-04 07:23:00,85.1,62.6,29.63,SE,133,9.0,0.0,47,0.00,,,0.00,0,WeatherHawk,2013-07-04 14:23:00,
2013-07-04 07:28:00,85.1,62.6,29.63,SE,133,9.0,0.0,47,0.00,,,0.00,0,WeatherHawk,2013-07-04 14:28:00,
2013-07-04 07:33:00,85.1,62.6,29.63,SE,133,9.0,0.0,47,0.00,,,0.00,0,WeatherHawk,2013-07-04 14:33:00,
2013-07-04 07:38:00,85.1,62.6,29.63,SE,133,9.0,0.0,47,0.00,,,0.00,0,WeatherHawk,2013-07-04 14:38:00,
2013-07-04 07:43:00,85.1,62.6,29.63,SE,133,9.0,0.0,47,0.00,,,0.00,0,WeatherHawk,2013-07-04 14:43:00,
2013-07-04 07:48:00,85.1,62.6,29.63,SE,133,9.0,0.0,47,0.00,,,0.00,0,WeatherHawk,2013-07-04 14:48:00,
2013-07-04 07:52:00,85.1,62.6,29.63,SE,133,9.0,0.0,47,0.00,,,0.00,0,WeatherHawk,2013-07-04 14:52:00,
2013-07-04 07:57:00,85.1,62.6,29.63,SE,133,9.0,0.0,47,0.00,,,0.00,0,WeatherHawk,2013-07-04 14:57:00,
2013-07-04 08:02:00,85.1,62.6,29.63,SE,133,9.0,0.0,47,0.00,,,0.00,0,WeatherHawk,2013-07-04 15:02:00,
2013-07-04 08:07:00,85.1,62.6,29.63,SE,133,9.0,0.0,47,0.00,,,0.00,0,WeatherHawk,2013-07-04 15:07:00,
2013-07-04 08:12:00,85.1,62.6,29.63,SE,133,9.0,0.0,47,0.00,,,0.00,0,WeatherHawk,2013-07-04 15:12:00,
2013-07-04 08:17:00,85.1,62.6,29.63,SE,133,9.0,0.0,47,0.00,,,0.00,0,WeatherHawk,2013-07-04 15:17:00,
2013-07-04 08:22:00,85.1,62.6,29.63,SE,133,9.0,0.0,47,0.00,,,0.00,0,WeatherHawk,2013-07-04 15:22:00,
2013-07-04 08:27:00,85.1,62.6,29.63,SE,133,9.0,0.0,47,0.00,,,0.00,0,WeatherHawk,2013-07-04 15:27:00,
2013-07-04 08:32:00,85.1,62.6,29.63,SE,133,9.0,0.0,47,0.00,,,0.00,0,WeatherHawk,2013-07-04 15:32:00,
2013-07-04 08:37:00,85.1,62.6,29.63,SE,133,9.0,0.0,47,0.00,,,0.00,0,WeatherHawk,2013-07-04 15:37:00,
2013-07-04 08:42:00,85.1,62.6,29.63,SE,133,9.0,0.0,47,0.00,,,0.00,0,WeatherHawk,2013-07-04 15:42:00,
2013-07-04 08:47:00,85.1,62.6,29.63,SE,133,9.0,0.0,47,0.00,,,0.00,0,WeatherHawk,2013-07-04 15:47:00,
2013-07-04 08:52:00,85.1,62.6,29.63,SE,133,9.0,0.0,47,0.00,,,0.00,0,WeatherHawk,2013-07-04 15:52:00,
2013-07-04 08:57:00,85.1,62.6,29.63,SE,133,9.0,0.0,47,0.00,,,0.00,0,WeatherHawk,2013-07-04 15:57:00,
2013-07-04 09:02:00,85.1,62.6,29.63,SE,133,9.0,0.0,47,0.00,,,0.00,0,WeatherHawk,2013-07-04 16:02:00,
2013-07-04 09:07:00,85.1,62.6,29.63,SE,133,9.0,0.0,47,0.00,,,0.00,0,WeatherHawk,2013-07-04 16:07:00,
2013-07-04 09:12:00,85.1,62.6,29.63,SE,133,9.0,0.0,47,0.00,,,0.00,0,WeatherHawk,2013-07-04 16:12:00,
2013-07-04 09:17:00,85.1,62.6,29.63,SE,133,9.0,0.0,47,0.00,,,0.00,0,WeatherHawk,2013-07-04 16:17:00,
2013-07-04 09:22:00,85.1,62.6,29.63,SE,133,9.0,0.0,47,0.00,,,0.00,0,WeatherHawk,2013-07-04 16:22:00,
2013-07-04 09:27:00,85.1,62.6,29.63,SE,133,9.0,0.0,47,0.00,,,0.00,0,WeatherHawk,2013-07-04 16:27:00,
2013-07-04 09:28:00,85.1,62.6,29.63,SE,133,9.0,0.0,47,0.00,,,0.00,0,WeatherHawk,2013-07-04 16:28:00,
2013-07-04 09:33:00,85.1,62.6,29.63,SE,133,9.0,0.0,47,0.00,,,0.00,0,WeatherHawk,2013-07-04 16:33:00,
2013-07-04 09:38:00,85.1,62.6,29.63,SE,133,9.0,0.0,47,0.00,,,0.00,0,WeatherHawk,2013-07-04 16:38:00,
2013-07-04 09:43:00,85.1,62.6,29.63,SE,133,9.0,0.0,47,0.00,,,0.00,0,WeatherHawk,2013-07-04 16:43:00,
2013-07-04 09:48:00,85.1,62.6,29.63,SE,133,9.0,0.0,47,0.00,,,0.00,0,WeatherHawk,2013-07-04 16:48:00,
2013-07-04 09:53:00,85.1,62.6,29.63,SE,133,9.0,0.0,47,0.00,,,0.00,0,WeatherHawk,2013-07-04 16:53:00,
2013-07-04 09:58:00,85.1,62.6,29.63,SE,133,9.0,0.0,47,0.00,,,0.00,0,WeatherHawk,2013-07-04 16:58:00,
2013-07-04 10:03:00,85.1,62.6,29.63,SE,133,9.0,0.0,47,0.00,,,0.00,0,WeatherHawk,2013-07-04 17:03:00,
2013-07-04 10:08:00,85.1,62.6,29.63,SE,133,9.0,0.0,47,0.00,,,0.00,0,WeatherHawk,2013-07-04 17:08:00,
2013-07-04 10:13:00,85.1,62.6,29.63,SE,133,9.0,0.0,47,0.00,,,0.00,0,WeatherHawk,2013-07-04 17:13:00,
2013-07-04 10:18:00,85.1,62.6,29.63,SE,133,9.0,0.0,47,0.00,,,0.00,0,WeatherHawk,2013-07-04 17:18:00,
2013-07-04 10:23:00,85.1,62.6,29.63,SE,133,9.0,0.0,47,0.00,,,0.00,0,WeatherHawk,2013-07-04 17:23:00,
2013-07-04 10:28:00,85.1,62.6,29.63,SE,133,9.0,0.0,47,0.00,,,0.00,0,WeatherHawk,2013-07-04 17:28:00,
2013-07-04 10:33:00,85.1,62.6,29.63,SE,133,9.0,0.0,47,0.00,,,0.00,0,WeatherHawk,2013-07-04 17:33:00,
2013-07-04 10:38:00,85.1,62.6,29.63,SE,133,9.0,0.0,47,0.00,,,0.00,0,WeatherHawk,2013-07-04 17:38:00,
2013-07-04 10:43:00,85.1,62.6,29.63,SE,133,9.0,0.0,47,0.00,,,0.00,0,WeatherHawk,2013-07-04 17:43:00,
2013-07-04 10:48:00,85.1,62.6,29.63,SE,133,9.0,0.0,47,0.00,,,0.00,0,WeatherHawk,2013-07-04 17:48:00,
2013-07-04 10:53:00,85.1,62.6,29.63,SE,133,9.0,0.0,47,0.00,,,0.00,0,WeatherHawk,2013-07-04 17:53:00,
2013-07-04 10:58:00,85.1,62.6,29.63,SE,133,9.0,0.0,47,0.00,,,0.00,0,WeatherHawk,2013-07-04 17:58:00,
2013-07-04 11:03:00,85.1,62.6,29.63,SE,133,9.0,0.0,47,0.00,,,0.00,0,WeatherHawk,2013-07-04 18:03:00,
2013-07-04 11:08:00,85.1,62.6,29.63,SE,133,9.0,0.0,47,0.00,,,0.00,0,WeatherHawk,2013-07-04 18:08:00,
2013-07-04 11:13:00,85.1,62.6,29.63,SE,133,9.0,0.0,47,0.00,,,0.00,0,WeatherHawk,2013-07-04 18:13:00,
2013-07-04 11:18:00,85.1,62.6,29.63,SE,133,9.0,0.0,47,0.00,,,0.00,0,WeatherHawk,2013-07-04 18:18:00,
2013-07-04 11:23:00,85.1,62.6,29.63,SE,133,9.0,0.0,47,0.00,,,0.00,0,WeatherHawk,2013-07-04 18:23:00,
2013-07-04 11:28:00,85.1,62.6,29.63,SE,133,9.0,0.0,47,0.00,,,0.00,0,WeatherHawk,2013-07-04 18:28:00,
2013-07-04 11:33:00,85.1,62.6,29.63,SE,133,9.0,0.0,47,0.00,,,0.00,0,WeatherHawk,2013-07-04 18:33:00,
2013-07-04 11:38:00,85.1,62.6,29.63,SE,133,9.0,0.0,47,0.00,,,0.00,0,WeatherHawk,2013-07-04 18:38:00,
2013-07-04 11:43:00,85.1,62.6,29.63,SE,133,9.0,0.0,47,0.00,,,0.00,0,WeatherHawk,2013-07-04 18:43:00,
2013-07-04 11:48:00,85.1,62.6,29.63,SE,133,9.0,0.0,47,0.00,,,0.00,0,WeatherHawk,2013-07-04 18:48:00,
2013-07-04 11:53:00,85.1,62.6,29.63,SE,133,9.0,0.0,47,0.00,,,0.00,0,WeatherHawk,2013-07-04 18:53:00,
2013-07-04 11:58:00,85.1,62.6,29.63,SE,133,9.0,0.0,47,0.00,,,0.00,0,WeatherHawk,2013-07-04 18:58:00,
2013-07-04 12:03:00,85.1,62.6,29.63,SE,133,9.0,0.0,47,0.00,,,0.00,0,WeatherHawk,2013-07-04 19:03:00,
2013-07-04 12:08:00,85.1,62.6,29.63,SE,133,9.0,0.0,47,0.00,,,0.00,0,WeatherHawk,2013-07-04 19:08:00,
2013-07-04 12:13:00,85.1,62.6,29.63,SE,133,9.0,0.0,47,0.00,,,0.00,0,WeatherHawk,2013-07-04 19:13:00,
2013-07-04 12:18:00,85.1,62.6,29.63,SE,133,9.0,0.0,47,0.00,,,0.00,0,WeatherHawk,2013-07-04 19:18:00,
2013-07-04 12:28:00,85.1,62.6,29.63,SE,133,9.0,0.0,47,0.00,,,0.00,0,WeatherHawk,2013-07-04 19:28:00,
2013-07-04 12:33:00,85.1,62.6,29.63,SE,133,9.0,0.0,47,0.00,,,0.00,0,WeatherHawk,2013-07-04 19:33:00,
2013-07-04 12:38:00,85.1,62.6,29.63,SE,133,9.0,0.0,47,0.00,,,0.00,0,WeatherHawk,2013-07-04 19:38:00,
2013-07-04 12:43:00,85.1,62.6,29.63,SE,133,9.0,0.0,47,0.00,,,0.00,0,WeatherHawk,2013-07-04 19:43:00,
2013-07-04 12:48:00,85.1,62.6,29.63,SE,133,9.0,0.0,47,0.00,,,0.00,0,WeatherHawk,2013-07-04 19:48:00,
2013-07-04 12:53:00,85.1,62.6,29.63,SE,133,9.0,0.0,47,0.00,,,0.00,0,WeatherHawk,2013-07-04 19:53:00,
2013-07-04 12:58:00,85.1,62.6,29.63,SE,133,9.0,0.0,47,0.00,,,0.00,0,WeatherHawk,2013-07-04 19:58:00,
2013-07-04 13:03:00,85.1,62.6,29.63,SE,133,9.0,0.0,47,0.00,,,0.00,0,WeatherHawk,2013-07-04 20:03:00,
2013-07-04 13:07:00,103.1,58.1,29.67,South,176,23.0,0.0,23,0.00,,,0.00,1033,WeatherHawk,2013-07-04 20:07:00,
2013-07-04 13:12:00,103.5,58.3,29.67,South,184,20.0,0.0,23,0.00,,,0.00,1029,WeatherHawk,2013-07-04 20:12:00,
2013-07-04 13:13:00,103.5,58.3,29.67,South,184,20.0,0.0,23,0.00,,,0.00,1029,WeatherHawk,2013-07-04 20:13:00,
2013-07-04 13:18:00,103.5,57.1,29.67,South,178,17.0,-999.0,22,0.00,,,0.00,1029,WeatherHawk,2013-07-04 20:18:00,
2013-07-04 13:20:00,102.9,56.7,29.67,South,176,17.0,0.0,22,0.00,,,0.00,1025,WeatherHawk,2013-07-04 20:20:00,
2013-07-04 13:22:00,102.9,56.7,29.67,South,170,14.0,0.0,22,0.00,,,0.00,1024,WeatherHawk,2013-07-04 20:22:00,
2013-07-04 13:23:00,102.9,56.7,29.67,South,170,14.0,-999.0,22,0.00,,,0.00,1024,WeatherHawk,2013-07-04 20:23:00,
2013-07-04 13:26:00,103.5,57.1,29.67,South,170,17.0,0.0,22,0.00,,,0.00,1022,WeatherHawk,2013-07-04 20:26:00,
2013-07-04 13:27:00,103.5,57.1,29.67,South,170,17.0,-999.0,22,0.00,,,0.00,1022,WeatherHawk,2013-07-04 20:27:00,
2013-07-04 13:28:00,103.3,57.0,29.67,SSE,150,18.0,0.0,22,0.00,,,0.00,1019,WeatherHawk,2013-07-04 20:28:00,
2013-07-04 13:32:00,103.6,57.3,29.67,SSE,165,15.0,0.0,22,0.00,,,0.00,1008,WeatherHawk,2013-07-04 20:32:00,
2013-07-04 13:37:00,104.2,56.4,29.67,SSE,161,14.0,0.0,21,0.00,,,0.00,1009,WeatherHawk,2013-07-04 20:37:00,
2013-07-04 13:38:00,103.5,57.1,29.67,SSE,167,14.0,0.0,22,0.00,,,0.00,1009,WeatherHawk,2013-07-04 20:38:00,
2013-07-04 13:42:00,103.5,57.1,29.67,SSE,167,14.0,-999.0,22,0.00,,,0.00,1009,WeatherHawk,2013-07-04 20:42:00,
2013-07-04 13:47:00,104.0,56.3,29.66,South,176,13.0,0.0,21,0.00,,,0.00,995,WeatherHawk,2013-07-04 20:47:00,
2013-07-04 13:48:00,104.0,56.3,29.66,South,176,13.0,-999.0,21,0.00,,,0.00,995,WeatherHawk,2013-07-04 20:48:00,
2013-07-04 13:49:00,104.0,57.6,29.66,South,172,13.0,0.0,22,0.00,,,0.00,991,WeatherHawk,2013-07-04 20:49:00,
2013-07-04 13:52:00,104.7,56.9,29.66,South,183,17.0,0.0,21,0.00,,,0.00,995,WeatherHawk,2013-07-04 20:52:00,
2013-07-04 13:56:00,104.7,56.9,29.66,South,186,20.0,0.0,21,0.00,,,0.00,974,WeatherHawk,2013-07-04 20:56:00,
2013-07-04 13:57:00,104.9,57.0,29.66,South,182,19.0,0.0,21,0.00,,,0.00,979,WeatherHawk,2013-07-04 20:57:00,
2013-07-04 14:01:00,104.4,57.9,29.66,South,179,21.0,0.0,22,0.00,,,0.00,966,WeatherHawk,2013-07-04 21:01:00,
2013-07-04 14:02:00,104.4,57.9,29.66,South,179,21.0,0.0,22,0.00,,,0.00,966,WeatherHawk,2013-07-04 21:02:00,
2013-07-04 14:04:00,104.2,56.4,29.66,South,181,17.0,0.0,21,0.00,,,0.00,971,WeatherHawk,2013-07-04 21:04:00,
2013-07-04 14:07:00,104.0,57.6,29.66,South,177,21.0,-999.0,22,0.00,,,0.00,964,WeatherHawk,2013-07-04 21:07:00,
2013-07-04 14:10:00,104.2,56.4,29.66,South,181,15.0,0.0,21,0.00,,,0.00,953,WeatherHawk,2013-07-04 21:10:00,
2013-07-04 14:12:00,103.8,56.1,29.66,South,180,16.0,0.0,21,0.00,,,0.00,951,WeatherHawk,2013-07-04 21:12:00,
2013-07-04 14:14:00,104.0,54.9,29.66,SSE,159,16.0,0.0,20,0.00,,,0.00,962,WeatherHawk,2013-07-04 21:14:00,
2013-07-04 14:16:00,104.4,56.6,29.66,South,169,15.0,0.0,21,0.00,,,0.00,962,WeatherHawk,2013-07-04 21:16:00,
2013-07-04 14:17:00,104.5,55.4,29.66,South,174,19.0,-999.0,20,0.00,,,0.00,961,WeatherHawk,2013-07-04 21:17:00,
2013-07-04 14:20:00,104.4,56.6,29.65,SSW,192,16.0,0.0,21,0.00,,,0.00,954,WeatherHawk,2013-07-04 21:20:00,
2013-07-04 14:22:00,104.4,56.6,29.65,SSW,192,16.0,0.0,21,0.00,,,0.00,954,WeatherHawk,2013-07-04 21:22:00,
2013-07-04 14:23:00,104.2,57.7,29.65,South,175,17.0,0.0,22,0.00,,,0.00,933,WeatherHawk,2013-07-04 21:23:00,
2013-07-04 14:25:00,104.9,58.3,29.65,SSE,168,20.0,0.0,22,0.00,,,0.00,925,WeatherHawk,2013-07-04 21:25:00,
2013-07-04 14:27:00,104.9,58.3,29.65,SSE,168,20.0,0.0,22,0.00,,,0.00,925,WeatherHawk,2013-07-04 21:27:00,
2013-07-04 14:32:00,104.5,56.7,29.65,South,181,15.0,-999.0,21,0.00,,,0.00,929,WeatherHawk,2013-07-04 21:32:00,
2013-07-04 14:36:00,104.5,56.7,29.65,SSW,193,16.0,0.0,21,0.00,,,0.00,924,WeatherHawk,2013-07-04 21:36:00,
2013-07-04 14:37:00,104.7,58.1,29.65,South,186,20.0,-999.0,22,0.00,,,0.00,913,WeatherHawk,2013-07-04 21:37:00,
2013-07-04 14:39:00,104.4,56.6,29.65,South,178,19.0,0.0,21,0.00,,,0.00,919,WeatherHawk,2013-07-04 21:39:00,
2013-07-04 14:42:00,104.4,56.6,29.65,SSE,159,18.0,0.0,21,0.00,,,0.00,927,WeatherHawk,2013-07-04 21:42:00,
2013-07-04 14:44:00,104.2,57.7,29.65,South,176,16.0,0.0,22,0.00,,,0.00,914,WeatherHawk,2013-07-04 21:44:00,
2013-07-04 14:46:00,104.0,57.6,29.65,South,176,12.0,0.0,22,0.00,,,0.00,912,WeatherHawk,2013-07-04 21:46:00,
2013-07-04 14:47:00,104.2,57.7,29.64,SSE,159,17.0,0.0,22,0.00,,,0.00,905,WeatherHawk,2013-07-04 21:47:00,
2013-07-04 14:51:00,105.1,58.4,29.64,South,184,16.0,0.0,22,0.00,,,0.00,909,WeatherHawk,2013-07-04 21:51:00,
2013-07-04 14:52:00,104.9,58.3,29.64,South,173,16.0,0.0,22,0.00,,,0.00,910,WeatherHawk,2013-07-04 21:52:00,
2013-07-04 14:54:00,104.7,58.1,29.64,South,187,13.0,0.0,22,0.00,,,0.00,906,WeatherHawk,2013-07-04 21:54:00,
2013-07-04 14:56:00,104.9,58.3,29.64,SE,142,14.0,0.0,22,0.00,,,0.00,904,WeatherHawk,2013-07-04 21:56:00,
2013-07-04 14:59:00,104.2,58.9,29.64,South,177,19.0,0.0,23,0.00,,,0.00,913,WeatherHawk,2013-07-04 21:59:00,
2013-07-04 15:02:00,104.9,59.5,29.64,South,172,14.0,0.0,23,0.00,,,0.00,925,WeatherHawk,2013-07-04 22:02:00,
2013-07-04 15:06:00,104.0,60.0,29.64,South,173,15.0,0.0,24,0.00,,,0.00,991,WeatherHawk,2013-07-04 22:06:00,
2013-07-04 15:07:00,104.0,60.0,29.64,South,173,15.0,-999.0,24,0.00,,,0.00,991,WeatherHawk,2013-07-04 22:07:00,
2013-07-04 15:12:00,103.8,62.1,29.64,SE,133,15.0,0.0,26,0.00,,,0.00,927,WeatherHawk,2013-07-04 22:12:00,
2013-07-04 15:17:00,104.0,62.3,29.63,South,174,17.0,-999.0,26,0.00,,,0.00,928,WeatherHawk,2013-07-04 22:17:00,
2013-07-04 15:21:00,103.3,61.6,29.63,SE,141,17.0,0.0,26,0.00,,,0.00,568,WeatherHawk,2013-07-04 22:21:00,
2013-07-04 15:22:00,103.3,61.6,29.63,SE,141,17.0,0.0,26,0.00,,,0.00,568,WeatherHawk,2013-07-04 22:22:00,
2013-07-04 15:23:00,103.3,61.6,29.63,SE,141,17.0,0.0,26,0.00,,,0.00,568,WeatherHawk,2013-07-04 22:23:00,
2013-07-04 15:25:00,103.8,62.1,29.63,SSE,156,16.0,0.0,26,0.00,,,0.00,290,WeatherHawk,2013-07-04 22:25:00,
2013-07-04 15:28:00,103.8,62.1,29.63,SSE,156,16.0,0.0,26,0.00,,,0.00,290,WeatherHawk,2013-07-04 22:28:00,
2013-07-04 15:33:00,102.4,62.0,29.63,SSE,147,19.0,-999.0,27,0.00,,,0.00,796,WeatherHawk,2013-07-04 22:33:00,
2013-07-04 15:35:00,102.2,61.8,29.63,SSE,149,20.0,0.0,27,0.00,,,0.00,420,WeatherHawk,2013-07-04 22:35:00,
2013-07-04 15:38:00,102.4,60.9,29.63,South,175,20.0,0.0,26,0.00,,,0.00,403,WeatherHawk,2013-07-04 22:38:00,
2013-07-04 15:41:00,102.4,60.9,29.63,South,176,17.0,0.0,26,0.00,,,0.00,504,WeatherHawk,2013-07-04 22:41:00,
2013-07-04 15:42:00,102.4,60.9,29.63,SE,140,13.0,0.0,26,0.00,,,0.00,592,WeatherHawk,2013-07-04 22:42:00,
2013-07-04 15:43:00,102.4,60.9,29.63,SSE,165,17.0,0.0,26,0.00,,,0.00,527,WeatherHawk,2013-07-04 22:43:00,
2013-07-04 15:48:00,102.7,61.2,29.62,South,178,18.0,0.0,26,0.00,,,0.00,646,WeatherHawk,2013-07-04 22:48:00,
2013-07-04 15:49:00,102.7,61.2,29.62,SSE,161,17.0,0.0,26,0.00,,,0.00,664,WeatherHawk,2013-07-04 22:49:00,
2013-07-04 15:51:00,102.9,60.2,29.62,South,173,17.0,0.0,25,0.00,,,0.00,658,WeatherHawk,2013-07-04 22:51:00,
2013-07-04 15:53:00,102.9,60.2,29.62,South,174,18.0,0.0,25,0.00,,,0.00,652,WeatherHawk,2013-07-04 22:53:00,
2013-07-04 15:57:00,102.9,60.2,29.62,SSE,165,17.0,0.0,25,0.00,,,0.00,627,WeatherHawk,2013-07-04 22:57:00,
2013-07-04 15:58:00,102.9,60.2,29.62,South,187,19.0,-999.0,25,0.00,,,0.00,626,WeatherHawk,2013-07-04 22:58:00,
2013-07-04 16:00:00,103.5,60.7,29.62,SSE,167,17.0,0.0,25,0.00,,,0.00,607,WeatherHawk,2013-07-04 23:00:00,
2013-07-04 16:02:00,102.9,60.2,29.62,South,179,14.0,0.0,25,0.00,,,0.00,600,WeatherHawk,2013-07-04 23:02:00,
2013-07-04 16:03:00,102.9,60.2,29.62,South,184,17.0,0.0,25,0.00,,,0.00,589,WeatherHawk,2013-07-04 23:03:00,
2013-07-04 16:07:00,102.7,58.9,29.62,SSE,163,15.0,0.0,24,0.00,,,0.00,604,WeatherHawk,2013-07-04 23:07:00,
2013-07-04 16:08:00,102.7,58.9,29.62,SSE,163,15.0,0.0,24,0.00,,,0.00,604,WeatherHawk,2013-07-04 23:08:00,
2013-07-04 16:09:00,102.6,59.9,29.62,SSE,161,17.0,0.0,25,0.00,,,0.00,605,WeatherHawk,2013-07-04 23:09:00,
2013-07-04 16:13:00,102.7,60.1,29.62,SSE,168,15.0,-999.0,25,0.00,,,0.00,625,WeatherHawk,2013-07-04 23:13:00,
2013-07-04 16:15:00,102.7,60.1,29.62,SSE,152,14.0,0.0,25,0.00,,,0.00,635,WeatherHawk,2013-07-04 23:15:00,
2013-07-04 16:18:00,102.2,59.6,29.62,South,175,16.0,0.0,25,0.00,,,0.00,643,WeatherHawk,2013-07-04 23:18:00,
2013-07-04 16:21:00,102.6,59.9,29.61,South,175,17.0,0.0,25,0.00,,,0.00,633,WeatherHawk,2013-07-04 23:21:00,
2013-07-04 16:23:00,102.2,59.6,29.62,South,175,16.0,0.0,25,0.00,,,0.00,643,WeatherHawk,2013-07-04 23:23:00,
2013-07-04 16:25:00,102.9,59.1,29.61,SSE,163,18.0,0.0,24,0.00,,,0.00,614,WeatherHawk,2013-07-04 23:25:00,
2013-07-04 16:26:00,102.7,60.1,29.62,South,169,15.0,0.0,25,0.00,,,0.00,610,WeatherHawk,2013-07-04 23:26:00,
2013-07-04 16:28:00,102.4,59.8,29.61,SSE,155,12.0,0.0,25,0.00,,,0.00,596,WeatherHawk,2013-07-04 23:28:00,
2013-07-04 16:33:00,102.7,60.1,29.61,SSE,166,19.0,-999.0,25,0.00,,,0.00,561,WeatherHawk,2013-07-04 23:33:00,
2013-07-04 16:34:00,102.6,59.9,29.61,SSE,168,16.0,0.0,25,0.00,,,0.00,557,WeatherHawk,2013-07-04 23:34:00,
2013-07-04 16:35:00,102.2,59.6,29.61,SSE,164,13.0,0.0,25,0.00,,,0.00,553,WeatherHawk,2013-07-04 23:35:00,
2013-07-04 16:37:00,102.4,59.8,29.61,SSE,163,19.0,0.0,25,0.00,,,0.00,542,WeatherHawk,2013-07-04 23:37:00,
2013-07-04 16:39:00,102.2,58.5,29.61,SSE,164,17.0,0.0,24,0.00,,,0.00,543,WeatherHawk,2013-07-04 23:39:00,
2013-07-04 16:40:00,102.4,58.6,29.61,SSE,164,17.0,0.0,24,0.00,,,0.00,537,WeatherHawk,2013-07-04 23:40:00,
2013-07-04 16:41:00,102.6,59.9,29.61,South,172,18.0,0.0,25,0.00,,,0.00,535,WeatherHawk,2013-07-04 23:41:00,
2013-07-04 16:43:00,102.6,59.9,29.61,South,172,18.0,-999.0,25,0.00,,,0.00,535,WeatherHawk,2013-07-04 23:43:00,
2013-07-04 16:46:00,102.9,59.1,29.61,SSE,168,16.0,0.0,24,0.00,,,0.00,536,WeatherHawk,2013-07-04 23:46:00,
2013-07-04 16:47:00,102.9,59.1,29.61,South,184,16.0,0.0,24,0.00,,,0.00,540,WeatherHawk,2013-07-04 23:47:00,
2013-07-04 16:48:00,102.9,59.1,29.61,South,184,16.0,0.0,24,0.00,,,0.00,540,WeatherHawk,2013-07-04 23:48:00,
2013-07-04 16:49:00,102.2,58.5,29.60,SSE,165,15.0,0.0,24,0.00,,,0.00,535,WeatherHawk,2013-07-04 23:49:00,
2013-07-04 16:53:00,102.6,58.8,29.60,South,171,21.0,0.0,24,0.00,,,0.00,534,WeatherHawk,2013-07-04 23:53:00,
2013-07-04 16:54:00,102.2,58.5,29.60,SSE,151,19.0,0.0,24,0.00,,,0.00,524,WeatherHawk,2013-07-04 23:54:00,
2013-07-04 16:56:00,102.4,58.6,29.60,South,177,17.0,0.0,24,0.00,,,0.00,515,WeatherHawk,2013-07-04 23:56:00,
2013-07-04 16:59:00,102.4,58.6,29.60,South,174,18.0,0.0,24,0.00,,,0.00,504,WeatherHawk,2013-07-04 23:59:00,
2013-07-04 17:00:00,102.4,58.6,29.60,SSE,163,16.0,0.0,24,0.00,,,0.00,504,WeatherHawk,2013-07-05 00:00:00,
2013-07-04 17:03:00,102.6,58.8,29.60,SSE,164,18.0,0.0,24,0.00,,,0.00,493,WeatherHawk,2013-07-05 00:03:00,
2013-07-04 17:07:00,102.0,59.5,29.60,SSE,152,16.0,0.0,25,0.00,,,0.00,482,WeatherHawk,2013-07-05 00:07:00,
2013-07-04 17:08:00,102.2,59.6,29.59,SSE,160,21.0,0.0,25,0.00,,,0.00,477,WeatherHawk,2013-07-05 00:08:00,
2013-07-04 17:13:00,102.2,59.6,29.60,SSE,154,15.0,0.0,25,0.00,,,0.00,457,WeatherHawk,2013-07-05 00:13:00,
2013-07-04 17:14:00,101.7,59.2,29.60,SE,145,14.0,0.0,25,0.00,,,0.00,445,WeatherHawk,2013-07-05 00:14:00,
2013-07-04 17:16:00,101.5,60.1,29.60,SSE,150,16.0,0.0,26,0.00,,,0.00,429,WeatherHawk,2013-07-05 00:16:00,
2013-07-04 17:18:00,101.5,60.1,29.59,SE,136,17.0,0.0,26,0.00,,,0.00,420,WeatherHawk,2013-07-05 00:18:00,
2013-07-04 17:23:00,101.1,59.8,29.59,South,177,17.0,0.0,26,0.00,,,0.00,419,WeatherHawk,2013-07-05 00:23:00,
2013-07-04 17:26:00,101.3,60.0,29.59,SSE,154,18.0,0.0,26,0.00,,,0.00,406,WeatherHawk,2013-07-05 00:26:00,
2013-07-04 17:29:00,101.3,60.0,29.59,South,170,16.0,0.0,26,0.00,,,0.00,399,WeatherHawk,2013-07-05 00:29:00,
2013-07-04 17:31:00,101.3,60.0,29.59,SE,132,14.0,0.0,26,0.00,,,0.00,394,WeatherHawk,2013-07-05 00:31:00,
2013-07-04 17:33:00,101.3,60.0,29.59,SSE,149,15.0,0.0,26,0.00,,,0.00,389,WeatherHawk,2013-07-05 00:33:00,
2013-07-04 17:35:00,100.9,59.7,29.59,SSE,150,17.0,0.0,26,0.00,,,0.00,374,WeatherHawk,2013-07-05 00:35:00,
2013-07-04 17:38:00,100.8,60.6,29.59,SSE,167,17.0,0.0,27,0.00,,,0.00,366,WeatherHawk,2013-07-05 00:38:00,
2013-07-04 17:39:00,100.9,60.7,29.59,SE,140,18.0,0.0,27,0.00,,,0.00,366,WeatherHawk,2013-07-05 00:39:00,
2013-07-04 17:41:00,100.8,59.5,29.59,SE,142,18.0,0.0,26,0.00,,,0.00,353,WeatherHawk,2013-07-05 00:41:00,
2013-07-04 17:43:00,100.8,59.5,29.59,SE,142,18.0,0.0,26,0.00,,,0.00,353,WeatherHawk,2013-07-05 00:43:00,
2013-07-04 17:46:00,100.2,60.1,29.59,SSE,150,19.0,0.0,27,0.00,,,0.00,335,WeatherHawk,2013-07-05 00:46:00,
2013-07-04 17:48:00,100.2,60.1,29.59,SSE,157,16.0,0.0,27,0.00,,,0.00,332,WeatherHawk,2013-07-05 00:48:00,
2013-07-04 17:52:00,100.0,60.0,29.59,SE,143,16.0,0.0,27,0.00,,,0.00,311,WeatherHawk,2013-07-05 00:52:00,
2013-07-04 17:53:00,100.0,60.0,29.59,SE,143,16.0,-999.0,27,0.00,,,0.00,311,WeatherHawk,2013-07-05 00:53:00,
2013-07-04 17:54:00,100.0,60.0,29.59,SE,145,14.0,0.0,27,0.00,,,0.00,309,WeatherHawk,2013-07-05 00:54:00,
2013-07-04 17:55:00,100.0,58.9,29.59,South,178,16.0,0.0,26,0.00,,,0.00,307,WeatherHawk,2013-07-05 00:55:00,
2013-07-04 17:58:00,100.0,58.9,29.59,South,178,16.0,0.0,26,0.00,,,0.00,307,WeatherHawk,2013-07-05 00:58:00,
2013-07-04 18:01:00,100.4,59.2,29.59,SSE,163,18.0,0.0,26,0.00,,,0.00,282,WeatherHawk,2013-07-05 01:01:00,
2013-07-04 18:02:00,100.2,59.1,29.59,SSE,152,17.0,0.0,26,0.00,,,0.00,280,WeatherHawk,2013-07-05 01:02:00,
2013-07-04 18:03:00,100.0,60.0,29.59,SE,143,13.0,0.0,27,0.00,,,0.00,274,WeatherHawk,2013-07-05 01:03:00,
2013-07-04 18:05:00,99.9,59.8,29.59,SE,137,15.0,0.0,27,0.00,,,0.00,268,WeatherHawk,2013-07-05 01:05:00,
2013-07-04 18:08:00,99.9,59.8,29.59,SE,137,15.0,0.0,27,0.00,,,0.00,268,WeatherHawk,2013-07-05 01:08:00,
2013-07-04 18:11:00,100.0,60.0,29.60,SSE,156,13.0,0.0,27,0.00,,,0.00,251,WeatherHawk,2013-07-05 01:11:00,
2013-07-04 18:13:00,100.0,60.0,29.60,SSE,156,13.0,-999.0,27,0.00,,,0.00,251,WeatherHawk,2013-07-05 01:13:00,
2013-07-04 18:16:00,99.7,59.7,29.59,SSE,155,14.0,0.0,27,0.00,,,0.00,232,WeatherHawk,2013-07-05 01:16:00,
2013-07-04 18:18:00,99.7,59.7,29.59,SE,137,16.0,0.0,27,0.00,,,0.00,228,WeatherHawk,2013-07-05 01:18:00,
2013-07-04 18:21:00,99.5,60.5,29.60,SSE,165,17.0,0.0,28,0.00,,,0.00,213,WeatherHawk,2013-07-05 01:21:00,
2013-07-04 18:23:00,99.5,60.5,29.60,SSE,165,17.0,0.0,28,0.00,,,0.00,213,WeatherHawk,2013-07-05 01:23:00,
2013-07-04 18:25:00,99.3,60.4,29.60,SSE,154,16.0,0.0,28,0.00,,,0.00,201,WeatherHawk,2013-07-05 01:25:00,
2013-07-04 18:28:00,99.1,60.2,29.60,SSE,163,16.0,0.0,28,0.00,,,0.00,191,WeatherHawk,2013-07-05 01:28:00,
2013-07-04 18:31:00,99.1,61.2,29.60,SSE,159,12.0,0.0,29,0.00,,,0.00,182,WeatherHawk,2013-07-05 01:31:00,
2013-07-04 18:33:00,99.3,60.4,29.60,South,169,16.0,-999.0,28,0.00,,,0.00,178,WeatherHawk,2013-07-05 01:33:00,
2013-07-04 18:35:00,98.8,59.9,29.60,SSE,147,18.0,0.0,28,0.00,,,0.00,155,WeatherHawk,2013-07-05 01:35:00,
2013-07-04 18:38:00,98.8,59.9,29.60,SSE,147,18.0,-999.0,28,0.00,,,0.00,155,WeatherHawk,2013-07-05 01:38:00,
2013-07-04 18:39:00,98.2,59.5,29.60,SSE,149,15.0,0.0,28,0.00,,,0.00,147,WeatherHawk,2013-07-05 01:39:00,
2013-07-04 18:40:00,98.4,59.6,29.60,SE,139,18.0,0.0,28,0.00,,,0.00,149,WeatherHawk,2013-07-05 01:40:00,
2013-07-04 18:43:00,98.2,59.5,29.60,SE,142,12.0,0.0,28,0.00,,,0.00,148,WeatherHawk,2013-07-05 01:43:00,
2013-07-04 18:45:00,98.1,59.3,29.60,SE,139,18.0,0.0,28,0.00,,,0.00,137,WeatherHawk,2013-07-05 01:45:00,
2013-07-04 18:46:00,97.9,59.2,29.60,SE,140,15.0,0.0,28,0.00,,,0.00,132,WeatherHawk,2013-07-05 01:46:00,
2013-07-04 18:48:00,97.9,59.2,29.60,SE,134,17.0,0.0,28,0.00,,,0.00,131,WeatherHawk,2013-07-05 01:48:00,
2013-07-04 18:49:00,97.9,59.2,29.60,SSE,148,17.0,0.0,28,0.00,,,0.00,125,WeatherHawk,2013-07-05 01:49:00,
2013-07-04 18:52:00,97.7,59.0,29.60,SSE,155,14.0,0.0,28,0.00,,,0.00,116,WeatherHawk,2013-07-05 01:52:00,
2013-07-04 18:53:00,97.7,59.0,29.60,SSE,155,14.0,-999.0,28,0.00,,,0.00,116,WeatherHawk,2013-07-05 01:53:00,
2013-07-04 18:54:00,97.7,59.0,29.60,SE,140,13.0,0.0,28,0.00,,,0.00,109,WeatherHawk,2013-07-05 01:54:00,
2013-07-04 18:56:00,97.5,58.9,29.60,SE,143,17.0,0.0,28,0.00,,,0.00,103,WeatherHawk,2013-07-05 01:56:00,
2013-07-04 18:58:00,97.3,58.7,29.60,SSE,150,13.0,0.0,28,0.00,,,0.00,97,WeatherHawk,2013-07-05 01:58:00,
2013-07-04 19:01:00,97.3,57.7,29.60,SE,137,17.0,0.0,27,0.00,,,0.00,88,WeatherHawk,2013-07-05 02:01:00,
2013-07-04 19:03:00,97.2,58.6,29.60,SSE,161,19.0,0.0,28,0.00,,,0.00,84,WeatherHawk,2013-07-05 02:03:00,
2013-07-04 19:07:00,97.0,58.4,29.60,SSE,147,17.0,0.0,28,0.00,,,0.00,76,WeatherHawk,2013-07-05 02:07:00,
2013-07-04 19:08:00,97.0,58.4,29.60,SE,145,18.0,-999.0,28,0.00,,,0.00,74,WeatherHawk,2013-07-05 02:08:00,
2013-07-04 19:09:00,97.0,58.4,29.60,SSE,159,15.0,0.0,28,0.00,,,0.00,70,WeatherHawk,2013-07-05 02:09:00,
2013-07-04 19:11:00,96.8,58.3,29.61,SSE,151,15.0,0.0,28,0.00,,,0.00,65,WeatherHawk,2013-07-05 02:11:00,
2013-07-04 19:13:00,96.8,58.3,29.61,SE,142,20.0,0.0,28,0.00,,,0.00,57,WeatherHawk,2013-07-05 02:13:00,
2013-07-04 19:18:00,96.4,58.0,29.61,SSE,156,21.0,-999.0,28,0.00,,,0.00,50,WeatherHawk,2013-07-05 02:18:00,
2013-07-04 19:19:00,96.4,58.0,29.61,SSE,148,20.0,0.0,28,0.00,,,0.00,45,WeatherHawk,2013-07-05 02:19:00,
2013-07-04 19:23:00,96.4,58.0,29.61,SSE,148,20.0,0.0,28,0.00,,,0.00,45,WeatherHawk,2013-07-05 02:23:00,
2013-07-04 19:24:00,96.3,57.8,29.61,SE,144,18.0,0.0,28,0.00,,,0.00,33,WeatherHawk,2013-07-05 02:24:00,
2013-07-04 19:28:00,96.1,58.6,29.61,SSE,151,16.0,0.0,29,0.00,,,0.00,28,WeatherHawk,2013-07-05 02:28:00,
2013-07-04 19:29:00,95.9,58.5,29.61,SSE,158,15.0,0.0,29,0.00,,,0.00,27,WeatherHawk,2013-07-05 02:29:00,
2013-07-04 19:34:00,95.7,58.3,29.61,SE,145,15.0,0.0,29,0.00,,,0.00,21,WeatherHawk,2013-07-05 02:34:00,
2013-07-04 19:36:00,95.7,58.3,29.61,SSE,155,17.0,0.0,29,0.00,,,0.00,16,WeatherHawk,2013-07-05 02:36:00,
2013-07-04 19:38:00,95.5,58.2,29.61,SSE,154,15.0,0.0,29,0.00,,,0.00,15,WeatherHawk,2013-07-05 02:38:00,
2013-07-04 19:41:00,95.4,59.0,29.61,SE,145,14.0,0.0,30,0.00,,,0.00,10,WeatherHawk,2013-07-05 02:41:00,
2013-07-04 19:43:00,95.4,59.0,29.61,SE,145,18.0,0.0,30,0.00,,,0.00,9,WeatherHawk,2013-07-05 02:43:00,
2013-07-04 19:48:00,95.2,58.8,29.61,SE,145,17.0,0.0,30,0.00,,,0.00,7,WeatherHawk,2013-07-05 02:48:00,
2013-07-04 19:50:00,94.8,58.5,29.61,SSE,159,12.0,0.0,30,0.00,,,0.00,4,WeatherHawk,2013-07-05 02:50:00,
2013-07-04 19:56:00,94.6,59.3,29.61,SE,140,13.0,0.0,31,0.00,,,0.00,1,WeatherHawk,2013-07-05 02:56:00,
2013-07-04 19:58:00,94.6,59.3,29.61,SE,140,13.0,-999.0,31,0.00,,,0.00,1,WeatherHawk,2013-07-05 02:58:00,
2013-07-04 19:59:00,94.5,59.1,29.61,SSE,149,15.0,0.0,31,0.00,,,0.00,2,WeatherHawk,2013-07-05 02:59:00,
2013-07-04 20:02:00,94.5,60.0,29.61,SSE,152,15.0,0.0,32,0.00,,,0.00,0,WeatherHawk,2013-07-05 03:02:00,
2013-07-04 20:03:00,94.5,60.0,29.61,SSE,152,15.0,-999.0,32,0.00,,,0.00,0,WeatherHawk,2013-07-05 03:03:00,
2013-07-04 20:07:00,94.1,60.5,29.61,SSE,151,16.0,0.0,33,0.00,,,0.00,0,WeatherHawk,2013-07-05 03:07:00,
2013-07-04 20:08:00,94.1,60.5,29.61,SSE,151,16.0,0.0,33,0.00,,,0.00,0,WeatherHawk,2013-07-05 03:08:00,
2013-07-04 20:11:00,93.7,60.2,29.61,SSE,150,15.0,0.0,33,0.00,,,0.00,0,WeatherHawk,2013-07-05 03:11:00,
2013-07-04 20:13:00,93.7,60.2,29.61,SSE,150,15.0,0.0,33,0.00,,,0.00,0,WeatherHawk,2013-07-05 03:13:00,
2013-07-04 20:15:00,93.6,60.9,29.61,SSE,150,16.0,0.0,34,0.00,,,0.00,0,WeatherHawk,2013-07-05 03:15:00,
2013-07-04 20:16:00,93.6,60.9,29.61,SSE,151,12.0,0.0,34,0.00,,,0.00,0,WeatherHawk,2013-07-05 03:16:00,
2013-07-04 20:18:00,93.6,60.9,29.61,SSE,151,12.0,-999.0,34,0.00,,,0.00,0,WeatherHawk,2013-07-05 03:18:00,
2013-07-04 20:19:00,93.4,60.8,29.61,SE,145,17.0,0.0,34,0.00,,,0.00,0,WeatherHawk,2013-07-05 03:19:00,
2013-07-04 20:21:00,93.4,60.8,29.61,SSE,149,16.0,0.0,34,0.00,,,0.00,0,WeatherHawk,2013-07-05 03:21:00,
2013-07-04 20:23:00,93.4,60.8,29.62,SSE,156,14.0,0.0,34,0.00,,,0.00,0,WeatherHawk,2013-07-05 03:23:00,
2013-07-04 20:27:00,93.2,60.6,29.62,SSE,148,15.0,0.0,34,0.00,,,0.00,0,WeatherHawk,2013-07-05 03:27:00,
2013-07-04 20:28:00,93.2,60.6,29.62,SSE,148,15.0,-999.0,34,0.00,,,0.00,0,WeatherHawk,2013-07-05 03:28:00,
2013-07-04 20:32:00,93.0,61.3,29.62,SSE,148,17.0,0.0,35,0.00,,,0.00,0,WeatherHawk,2013-07-05 03:32:00,
2013-07-04 20:33:00,92.8,61.1,29.62,SSE,148,19.0,-999.0,35,0.00,,,0.00,0,WeatherHawk,2013-07-05 03:33:00,
2013-07-04 20:38:00,92.8,61.1,29.62,SE,146,14.0,0.0,35,0.00,,,0.00,0,WeatherHawk,2013-07-05 03:38:00,
2013-07-04 20:40:00,92.5,60.8,29.62,SSE,151,16.0,0.0,35,0.00,,,0.00,1,WeatherHawk,2013-07-05 03:40:00,
2013-07-04 20:43:00,92.5,60.8,29.62,SSE,151,16.0,0.0,35,0.00,,,0.00,1,WeatherHawk,2013-07-05 03:43:00,
2013-07-04 20:48:00,92.3,60.6,29.62,SSE,154,17.0,-999.0,35,0.00,,,0.00,0,WeatherHawk,2013-07-05 03:48:00,
2013-07-04 20:49:00,92.1,61.3,29.63,SSE,149,14.0,0.0,36,0.00,,,0.00,0,WeatherHawk,2013-07-05 03:49:00,
2013-07-04 20:53:00,92.1,62.1,29.63,SSE,148,17.0,0.0,37,0.00,,,0.00,0,WeatherHawk,2013-07-05 03:53:00,
2013-07-04 20:56:00,91.9,61.9,29.63,SE,136,13.0,0.0,37,0.00,,,0.00,0,WeatherHawk,2013-07-05 03:56:00,
2013-07-04 20:57:00,91.9,61.9,29.63,SE,136,13.0,0.0,37,0.00,,,0.00,0,WeatherHawk,2013-07-05 03:57:00,
2013-07-04 20:59:00,91.6,62.3,29.63,SSE,147,13.0,0.0,38,0.00,,,0.00,0,WeatherHawk,2013-07-05 03:59:00,
2013-07-04 21:00:00,91.6,62.3,29.63,SSE,151,15.0,0.0,38,0.00,,,0.00,0,WeatherHawk,2013-07-05 04:00:00,
2013-07-04 21:01:00,91.6,62.3,29.63,SE,142,14.0,0.0,38,0.00,,,0.00,0,WeatherHawk,2013-07-05 04:01:00,
2013-07-04 21:02:00,91.6,62.3,29.63,SE,142,14.0,-999.0,38,0.00,,,0.00,0,WeatherHawk,2013-07-05 04:02:00,
2013-07-04 21:07:00,91.4,62.2,29.64,SSE,155,12.0,-999.0,38,0.00,,,0.00,0,WeatherHawk,2013-07-05 04:07:00,
2013-07-04 21:10:00,91.2,62.0,29.64,SSE,150,20.0,0.0,38,0.00,,,0.00,0,WeatherHawk,2013-07-05 04:10:00,
2013-07-04 21:12:00,91.2,62.8,29.64,SE,146,18.0,0.0,39,0.00,,,0.00,0,WeatherHawk,2013-07-05 04:12:00,
2013-07-04 21:13:00,91.2,62.8,29.64,SSE,152,14.0,0.0,39,0.00,,,0.00,0,WeatherHawk,2013-07-05 04:13:00,
2013-07-04 21:15:00,91.0,62.6,29.64,SSE,165,15.0,0.0,39,0.00,,,0.00,0,WeatherHawk,2013-07-05 04:15:00,
2013-07-04 21:17:00,91.0,62.6,29.64,SSE,165,15.0,0.0,39,0.00,,,0.00,0,WeatherHawk,2013-07-05 04:17:00,
2013-07-04 21:19:00,90.9,63.2,29.65,SSE,154,14.0,0.0,40,0.00,,,0.00,0,WeatherHawk,2013-07-05 04:19:00,
2013-07-04 21:22:00,90.7,63.0,29.65,SE,141,15.0,0.0,40,0.00,,,0.00,0,WeatherHawk,2013-07-05 04:22:00,
2013-07-04 21:27:00,90.5,63.5,29.65,SSE,151,13.0,-999.0,41,0.00,,,0.00,0,WeatherHawk,2013-07-05 04:27:00,
2013-07-04 21:30:00,90.3,63.4,29.65,SE,145,11.0,0.0,41,0.00,,,0.00,0,WeatherHawk,2013-07-05 04:30:00,
2013-07-04 21:31:00,90.3,63.4,29.65,SSE,153,10.0,0.0,41,0.00,,,0.00,0,WeatherHawk,2013-07-05 04:31:00,
2013-07-04 21:32:00,90.3,63.4,29.65,SSE,153,10.0,-999.0,41,0.00,,,0.00,0,WeatherHawk,2013-07-05 04:32:00,
2013-07-04 21:35:00,90.1,63.9,29.65,SSE,152,13.0,0.0,42,0.00,,,0.00,0,WeatherHawk,2013-07-05 04:35:00,
2013-07-04 21:37:00,90.1,63.9,29.66,SSE,157,14.0,0.0,42,0.00,,,0.00,0,WeatherHawk,2013-07-05 04:37:00,
2013-07-04 21:40:00,90.1,63.9,29.66,SSE,162,11.0,0.0,42,0.00,,,0.00,1,WeatherHawk,2013-07-05 04:40:00,
2013-07-04 21:43:00,90.0,63.7,29.66,SSE,160,11.0,0.0,42,0.00,,,0.00,0,WeatherHawk,2013-07-05 04:43:00,
2013-07-04 21:46:00,89.8,64.3,29.66,SSE,158,11.0,0.0,43,0.00,,,0.00,0,WeatherHawk,2013-07-05 04:46:00,
2013-07-04 21:47:00,89.8,64.3,29.66,SSE,158,11.0,0.0,43,0.00,,,0.00,0,WeatherHawk,2013-07-05 04:47:00,
2013-07-04 21:50:00,89.8,64.3,29.66,SSE,162,13.0,0.0,43,0.00,,,0.00,0,WeatherHawk,2013-07-05 04:50:00,
2013-07-04 21:52:00,89.8,64.3,29.66,SSE,163,12.0,0.0,43,0.00,,,0.00,0,WeatherHawk,2013-07-05 04:52:00,
2013-07-04 21:57:00,89.6,64.8,29.66,SSE,155,12.0,-999.0,44,0.00,,,0.00,0,WeatherHawk,2013-07-05 04:57:00,
2013-07-04 21:59:00,89.4,64.6,29.66,SSE,166,12.0,0.0,44,0.00,,,0.00,0,WeatherHawk,2013-07-05 04:59:00,
2013-07-04 22:01:00,89.4,64.6,29.66,SSE,162,12.0,0.0,44,0.00,,,0.00,0,WeatherHawk,2013-07-05 05:01:00,
2013-07-04 22:02:00,89.4,64.6,29.66,SSE,162,12.0,0.0,44,0.00,,,0.00,0,WeatherHawk,2013-07-05 05:02:00,
2013-07-04 22:05:00,89.2,65.1,29.66,SSE,149,13.0,0.0,45,0.00,,,0.00,0,WeatherHawk,2013-07-05 05:05:00,
2013-07-04 22:07:00,89.2,65.1,29.66,SSE,164,11.0,0.0,45,0.00,,,0.00,0,WeatherHawk,2013-07-05 05:07:00,
2013-07-04 22:09:00,89.1,64.9,29.66,SSE,159,11.0,0.0,45,0.00,,,0.00,0,WeatherHawk,2013-07-05 05:09:00,
2013-07-04 22:13:00,89.1,65.5,29.66,SSE,162,9.0,0.0,46,0.00,,,0.00,0,WeatherHawk,2013-07-05 05:13:00,
2013-07-04 22:16:00,88.9,65.4,29.66,SSE,161,12.0,0.0,46,0.00,,,0.00,0,WeatherHawk,2013-07-05 05:16:00,
2013-07-04 22:17:00,88.9,65.4,29.66,SSE,163,10.0,0.0,46,0.00,,,0.00,0,WeatherHawk,2013-07-05 05:17:00,
2013-07-04 22:19:00,88.7,65.8,29.66,SSE,165,11.0,0.0,47,0.00,,,0.00,0,WeatherHawk,2013-07-05 05:19:00,
2013-07-04 22:21:00,88.7,65.8,29.66,SSE,157,12.0,0.0,47,0.00,,,0.00,0,WeatherHawk,2013-07-05 05:21:00,
2013-07-04 22:22:00,88.7,65.8,29.66,SSE,157,12.0,0.0,47,0.00,,,0.00,0,WeatherHawk,2013-07-05 05:22:00,
2013-07-04 22:27:00,88.3,65.5,29.66,SSE,149,10.0,0.0,47,0.00,,,0.00,0,WeatherHawk,2013-07-05 05:27:00,
2013-07-04 22:30:00,88.3,65.5,29.66,SSE,149,14.0,0.0,47,0.00,,,0.00,0,WeatherHawk,2013-07-05 05:30:00,
2013-07-04 22:33:00,88.2,66.0,29.66,SSE,154,12.0,0.0,48,0.00,,,0.00,0,WeatherHawk,2013-07-05 05:33:00,
2013-07-04 22:34:00,88.2,66.0,29.67,SSE,149,9.0,0.0,48,0.00,,,0.00,0,WeatherHawk,2013-07-05 05:34:00,
2013-07-04 22:35:00,88.2,66.0,29.67,SE,143,10.0,0.0,48,0.00,,,0.00,0,WeatherHawk,2013-07-05 05:35:00,
2013-07-04 22:38:00,88.0,65.8,29.67,SSE,153,9.0,0.0,48,0.00,,,0.00,0,WeatherHawk,2013-07-05 05:38:00,
2013-07-04 22:40:00,88.0,65.8,29.67,SSE,159,9.0,0.0,48,0.00,,,0.00,0,WeatherHawk,2013-07-05 05:40:00,
2013-07-04 22:43:00,87.8,66.2,29.67,SSE,157,9.0,-999.0,49,0.00,,,0.00,0,WeatherHawk,2013-07-05 05:43:00,
2013-07-04 22:48:00,87.8,66.2,29.67,SE,145,9.0,0.0,49,0.00,,,0.00,0,WeatherHawk,2013-07-05 05:48:00,
2013-07-04 22:53:00,87.6,66.1,29.66,SSE,165,14.0,-999.0,49,0.00,,,0.00,0,WeatherHawk,2013-07-05 05:53:00,
2013-07-04 22:54:00,87.6,66.1,29.67,SSE,150,12.0,0.0,49,0.00,,,0.00,0,WeatherHawk,2013-07-05 05:54:00,
2013-07-04 22:56:00,87.4,65.9,29.67,SSE,159,11.0,0.0,49,0.00,,,0.00,0,WeatherHawk,2013-07-05 05:56:00,
2013-07-04 22:58:00,87.4,66.5,29.67,SSE,148,11.0,0.0,50,0.00,,,0.00,0,WeatherHawk,2013-07-05 05:58:00,
2013-07-04 23:00:00,87.4,66.5,29.67,SSE,154,9.0,0.0,50,0.00,,,0.00,0,WeatherHawk,2013-07-05 06:00:00,
2013-07-04 23:05:00,87.3,66.3,29.67,SSE,150,11.0,0.0,50,0.00,,,0.00,0,WeatherHawk,2013-07-05 06:05:00,
2013-07-04 23:06:00,87.3,66.3,29.67,SSE,150,8.0,0.0,50,0.00,,,0.00,0,WeatherHawk,2013-07-05 06:06:00,
2013-07-04 23:07:00,87.1,66.1,29.67,SE,142,9.0,0.0,50,0.00,,,0.00,0,WeatherHawk,2013-07-05 06:07:00,
2013-07-04 23:13:00,87.1,66.1,29.67,SE,132,7.0,0.0,50,0.00,,,0.00,0,WeatherHawk,2013-07-05 06:13:00,
2013-07-04 23:15:00,87.1,66.1,29.67,SE,135,6.0,0.0,50,0.00,,,0.00,0,WeatherHawk,2013-07-05 06:15:00,
2013-07-04 23:18:00,87.1,66.1,29.67,SE,133,8.0,0.0,50,0.00,,,0.00,0,WeatherHawk,2013-07-05 06:18:00,
2013-07-04 23:20:00,86.9,66.0,29.67,SE,125,6.0,0.0,50,0.00,,,0.00,0,WeatherHawk,2013-07-05 06:20:00,
2013-07-04 23:23:00,86.7,65.8,29.67,SE,135,7.0,0.0,50,0.00,,,0.00,0,WeatherHawk,2013-07-05 06:23:00,
2013-07-04 23:28:00,86.5,65.7,29.67,SE,144,6.0,0.0,50,0.00,,,0.00,0,WeatherHawk,2013-07-05 06:28:00,
2013-07-04 23:29:00,86.5,65.7,29.67,SE,137,5.0,0.0,50,0.00,,,0.00,0,WeatherHawk,2013-07-05 06:29:00,
2013-07-04 23:30:00,86.5,66.2,29.67,SE,137,9.0,0.0,51,0.00,,,0.00,0,WeatherHawk,2013-07-05 06:30:00,
2013-07-04 23:33:00,86.5,66.2,29.67,SE,145,10.0,0.0,51,0.00,,,0.00,0,WeatherHawk,2013-07-05 06:33:00,
2013-07-04 23:38:00,86.5,66.2,29.67,SE,127,9.0,-999.0,51,0.00,,,0.00,0,WeatherHawk,2013-07-05 06:38:00,
2013-07-04 23:39:00,86.4,66.1,29.67,ESE,123,7.0,0.0,51,0.00,,,0.00,0,WeatherHawk,2013-07-05 06:39:00,
2013-07-04 23:40:00,86.4,66.1,29.67,SE,138,7.0,0.0,51,0.00,,,0.00,1,WeatherHawk,2013-07-05 06:40:00,
2013-07-04 23:43:00,86.4,66.1,29.67,SE,138,7.0,0.0,51,0.00,,,0.00,1,WeatherHawk,2013-07-05 06:43:00,
2013-07-04 23:45:00,86.0,66.3,29.67,ESE,122,8.0,0.0,52,0.00,,,0.00,0,WeatherHawk,2013-07-05 06:45:00,
2013-07-04 23:47:00,86.0,66.3,29.67,ESE,123,8.0,0.0,52,0.00,,,0.00,0,WeatherHawk,2013-07-05 06:47:00,
2013-07-04 23:51:00,85.6,66.5,29.67,SE,126,6.0,0.0,53,0.00,,,0.00,0,WeatherHawk,2013-07-05 06:51:00,
2013-07-04 23:53:00,85.6,66.5,29.67,SE,131,7.0,0.0,53,0.00,,,0.00,0,WeatherHawk,2013-07-05 06:53:00,
2013-07-04 23:57:00,85.5,66.9,29.67,SE,134,9.0,0.0,54,0.00,,,0.00,0,WeatherHawk,2013-07-05 06:57:00,
2013-07-04 23:58:00,85.5,66.9,29.67,SE,134,9.0,-999.0,54,0.00,,,0.00,0,WeatherHawk,2013-07-05 06:58:00,